Regional Weather Roundup
Issued by NWS Cleveland, OH

Home | Current Version | Previous Version | Text Only | Print | Product List | Glossary Off
Versions: 1 2 3 4 5 6 7 8 9 10 11 12 13 14 15 16 17 18 19 20 21 22 23 24 25 26 27 28 29 30 31 32 33 34 35 36 37 38 39 40 41 42 43 44 45 46 47 48 49 50

000
ASUS41 KCLE 230510
RWRCLE
OHIO REGIONAL WEATHER ROUNDUP
NATIONAL WEATHER SERVICE WILMINGTON, OH
100 AM EDT SAT SEP 23 2017

NOTE: "FAIR" INDICATES FEW OR NO CLOUDS BELOW 12,000 FEET WITH NO
SIGNIFICANT WEATHER AND/OR OBSTRUCTIONS TO VISIBILITY.

OHZ001>008-015>018-024>027-034-035-043-044-230600-
   NORTHWEST OHIO

CITY           SKY/WX    TMP DP  RH WIND       PRES   REMARKS
DEFIANCE       FAIR      68  64  87 CALM      30.08S
FINDLAY        FAIR      70  61  73 CALM      30.08S
TOLEDO EXPRESS FAIR      68  67  96 CALM      30.09R
TOLEDO EXEC    FAIR      66  63  90 CALM      30.09S
LIMA           FAIR      71  65  81 SE6       30.09S
$$

OHZ009>014-019>023-028>033-038-089-230600-
   NORTHEAST OHIO

CITY           SKY/WX    TMP DP  RH WIND       PRES   REMARKS
CLE-HOPKINS    FAIR      68  61  78 CALM      30.11S
CLE-LAKEFRONT  FAIR      72  57  59 S3        30.08F
CUY CO. ARPT   NOT AVBL
LORAIN-ELYRIA  FAIR      60  55  83 CALM      30.10F
ASHTABULA      FAIR      57  57 100 CALM      30.12S
AKRON-CANTON   MOCLDY    67  58  72 E5        30.11S
WOOSTER        FAIR      59  58  96 CALM      30.12S
MANSFIELD      FAIR      68  64  87 SE5       30.11F
YOUNGSTOWN     FAIR      62  61  96 CALM      30.12R
$$

OHZ042-051>053-060>062-070>072-077>081-230600-
  SOUTHWEST OHIO

CITY           SKY/WX    TMP DP  RH WIND       PRES   REMARKS
CINC-COVINGTON FAIR      72  67  84 CALM      30.08R
CINC-LUNKEN    FAIR      67  67 100 CALM      30.08R FOG
HAMILTON       FAIR      66  65  96 CALM      30.08R FOG
DAYTON         FAIR      69  64  84 E3        30.10R
WRIGHT-PAT AFB CLEAR     68  68 100 CALM      30.08S
DAYTON GENERAL FAIR      70  64  81 CALM      30.08R
WILMINGTON     FAIR      65  64  97 CALM      30.09S
$$

OHZ036-037-039>041-045>050-054>059-063>069-073>076-082>088-230600-
  CENTRAL AND SOUTHEAST OHIO

CITY           SKY/WX    TMP DP  RH WIND       PRES   REMARKS
COLUMBUS       MOCLDY    69  67  93 N6        30.08S
OSU AIRPORT    FAIR      68  65  90 N3        30.09R
BOLTON FIELD   FAIR      67  65  94 CALM      30.09S
RICKENBACK AFB FAIR      68  66  93 CALM      30.07S
NEWARK         FOG       64  63  96 CALM      30.09S VSB 3/4
MARION         FAIR      65  60  84 CALM      30.10S
LANCASTER      FAIR      62  62 100 CALM      30.09S FOG
ZANESVILLE     FAIR      66  64  93 CALM      30.09S
NEW PHILLY     FAIR      61  59  93 CALM      30.10F
$$




USA.gov is the U.S. government's official web portal to all federal, state and local government web resources and services.